"2010-08-05 00:00:00",43501,3.576,297.8,2.063,0.078,19.2,108.0473,19.88,20.81,34.96,0,110.9,13.22,20.70,259.8
"2010-08-05 00:00:30",43502,3.753,295.5,0.784,0.067,19.24,108.0497,19.89,20.82,34.89,0,110.9,13.22,20.71,257.5
"2010-08-05 00:01:00",43503,3.677,291.7,3.226,0.161,19.26,108.0497,19.89,20.81,35.07,0,110.9,13.22,20.71,253.7
"2010-08-05 00:01:30",43504,3.391,284.7,1.597,0.095,19.2,108.0627,19.92,20.82,35.44,0,110.9,13.22,20.74,246.7
"2010-08-05 00:02:00",43505,3.402,283.2,1.093,0.082,19.18,108.0785,19.96,20.83,35.49,0,110.9,13.22,20.78,245.2
"2010-08-05 00:02:30",43506,3.236,279.2,1.266,0.091,19.45,108.081,19.97,20.86,35.63,0,110.9,13.22,20.79,241.2
"2010-08-05 00:03:00",43507,3.115,275.4,1.483,0.06,19.42,108.0888,19.99,20.86,35.78,0,110.9,13.22,20.81,237.4
"2010-08-05 00:03:30",43508,3.088,274.6,1.272,0.158,19.38,108.115,20.05,20.88,35.72,0,110.9,13.22,20.88,236.6
"2010-08-05 00:04:00",43509,3.166,273.6,1.393,0.19,19.36,108.1169,20.06,20.91,35.61,0,110.9,13.22,20.88,235.6
"2010-08-05 00:04:30",43510,3.56,273.5,1.495,0.093,19.29,108.1248,20.08,20.93,35.4,0,110.9,13.21,20.90,235.5
"2010-08-05 00:05:00",43511,3.76,273.8,1.751,0.069,19.3,108.131,20.1,20.94,35.27,0,110.9,13.21,20.92,235.8
"2010-08-05 00:05:30",43512,4.058,275.3,1.915,0.102,19.17,108.1174,20.06,20.93,34.84,0,110.9,13.21,20.88,237.3
"2010-08-05 00:06:00",43513,4.358,277.1,1.803,0.128,19.08,108.1131,20.05,20.91,34.47,0,110.9,13.21,20.87,239.1
"2010-08-05 00:06:30",43514,4.689,272.7,1.715,0.286,19.1,108.0836,19.97,20.88,34.61,0,110.9,13.21,20.80,234.7
"2010-08-05 00:07:00",43515,4.879,271,1.113,0.227,19.11,108.0773,19.96,20.88,34.7,0,110.9,13.21,20.78,233.0
"2010-08-05 00:07:30",43516,4.693,268.3,2.994,0.248,19.13,108.0561,19.9,20.86,34.7,0,110.9,13.21,20.73,230.3
"2010-08-05 00:08:00",43517,4.476,264.7,2.19,0.213,19.18,108.047,19.88,20.83,34.76,0,110.9,13.21,20.70,226.7
"2010-08-05 00:08:30",43518,4.13,260.2,2.275,0.109,19.29,108.0442,19.87,20.82,34.85,0,110.9,13.21,20.69,222.2
"2010-08-05 00:09:00",43519,4.576,256.7,2.837,0.171,19.23,108.0485,19.88,20.81,34.73,0,110.9,13.21,20.71,218.7
"2010-08-05 00:09:30",43520,4.633,256.2,3.193,0.167,19.27,108.0499,19.89,20.8,34.61,0,110.9,13.21,20.71,218.2
"2010-08-05 00:10:00",43521,4.588,255.1,3.017,0.113,19.27,108.0609,19.92,20.82,34.53,0,110.9,13.22,20.74,217.1
"2010-08-05 00:10:30",43522,4.347,249.9,1.559,0.138,19.18,108.0694,19.94,20.83,34.6,0,110.9,13.22,20.76,211.9
"2010-08-05 00:11:00",43523,3.95,252.8,3.103,0.189,19.13,108.0663,19.93,20.82,34.94,0,110.9,13.22,20.75,214.8
"2010-08-05 00:11:30",43524,4.507,260.7,3.425,0.148,19.04,108.0526,19.89,20.81,35.92,0,110.9,13.22,20.72,222.7
"2010-08-05 00:12:00",43525,4.182,252.9,9.93,0.291,18.81,108.024,19.82,20.76,38,0,110.9,13.22,20.64,214.9
"2010-08-05 00:12:30",43526,4.269,235.5,6.437,0.388,18.76,107.9859,19.72,20.71,39,0,110.9,13.22,20.54,197.5
"2010-08-05 00:13:00",43527,4.274,229.9,4.084,0.255,18.7,107.952,19.64,20.64,39.52,0,110.9,13.22,20.46,191.9
"2010-08-05 00:13:30",43528,4.637,234,2.741,0.237,18.7,107.9191,19.55,20.61,39.97,0,110.9,13.22,20.37,196.0
"2010-08-05 00:14:00",43529,4.469,230.6,2.76,0.151,18.59,107.8958,19.49,20.54,41.25,0,110.9,13.22,20.31,192.6
"2010-08-05 00:14:30",43530,3.871,242.4,6.849,0.219,19,107.8764,19.44,20.48,39.31,0,110.9,13.22,20.26,204.4
"2010-08-05 00:15:00",43531,4.442,241.7,2.44,0.135,19.38,107.8918,19.48,20.46,36.1,0,110.9,13.22,20.30,203.7
"2010-08-05 00:15:30",43532,4.586,242.1,1.829,0.12,19.39,107.9264,19.57,20.48,35.2,0,110.9,13.22,20.39,204.1
"2010-08-05 00:16:00",43533,4.749,243.8,2.261,0.12,19.33,107.9692,19.68,20.51,34.92,0,110.9,13.22,20.50,205.8
"2010-08-05 00:16:30",43534,4.759,241.9,2.115,0.191,19.35,108.0061,19.78,20.57,34.68,0,110.9,13.22,20.60,203.9
"2010-08-05 00:17:00",43535,4.56,246.2,2.601,0.197,19.36,108.032,19.84,20.61,34.55,0,110.9,13.22,20.66,208.2
"2010-08-05 00:17:30",43536,4.832,245.2,2.216,0.228,19.35,108.0578,19.91,20.66,34.4,0,110.9,13.22,20.73,207.2
"2010-08-05 00:18:00",43537,5.207,248.7,0.701,0.177,19.37,108.0841,19.98,20.71,34.18,0,110.9,13.22,20.80,210.7
"2010-08-05 00:18:30",43538,5.366,247.5,3.737,0.089,19.41,108.0962,20.01,20.76,34.36,0,110.9,13.22,20.83,209.5
"2010-08-05 00:19:00",43539,5.239,249.5,2.269,0.112,19.45,108.1252,20.08,20.8,34.32,0,110.9,13.22,20.90,211.5
"2010-08-05 00:19:30",43540,5.48,252.6,1.473,0.078,19.45,108.1422,20.12,20.83,33.84,0,110.9,13.22,20.95,214.6
"2010-08-05 00:20:00",43541,5.381,253.9,0.988,0.125,19.42,108.1605,20.17,20.88,33.68,0,110.9,13.22,20.99,215.9
"2010-08-05 00:20:30",43542,5.207,251.1,2.395,0.14,19.46,108.1644,20.18,20.92,33.88,0,110.9,13.22,21.00,213.1
"2010-08-05 00:21:00",43543,5.445,250.5,1.608,0.078,19.45,108.1912,20.25,20.97,33.69,0,110.8,13.22,21.07,212.5
"2010-08-05 00:21:30",43544,5.466,244.2,2.614,0.126,19.38,108.1975,20.27,20.99,33.65,0,110.8,13.22,21.09,206.2
"2010-08-05 00:22:00",43545,5.454,238.1,2.765,0.124,19.45,108.196,20.26,21.02,33.77,0,110.8,13.22,21.09,200.1
"2010-08-05 00:22:30",43546,5.296,240.4,1.039,0.102,19.44,108.1983,20.27,21.06,33.5,0,110.8,13.22,21.09,202.4
"2010-08-05 00:23:00",43547,5.492,239.2,1.375,0.174,19.4,108.2011,20.28,21.07,33.36,0,110.8,13.22,21.10,201.2
"2010-08-05 00:23:30",43548,5.388,236.5,1.099,0.067,19.4,108.2002,20.27,21.08,33.36,0,110.8,13.22,21.10,198.5
"2010-08-05 00:24:00",43549,5.439,237,1.171,0.083,19.46,108.2014,20.28,21.1,33.4,0,110.8,13.22,21.10,199.0
"2010-08-05 00:24:30",43550,5.449,233.5,1.2,0.106,19.4,108.1993,20.27,21.1,33.36,0,110.8,13.22,21.09,195.5
"2010-08-05 00:25:00",43551,5.607,226.9,4.651,0.32,19.22,108.1981,20.27,21.08,34.14,0,110.8,13.22,21.09,188.9
"2010-08-05 00:25:30",43552,6.481,217.6,2.714,0.435,18.33,108.1523,20.15,21.07,38.84,0,110.8,13.22,20.97,179.6
"2010-08-05 00:26:00",43553,6.936,211.4,4.778,0.401,18.4,108.0638,19.92,20.96,40.86,0,110.8,13.22,20.74,173.4
"2010-08-05 00:26:30",43554,7.37,207.2,3.839,0.548,18.39,107.9909,19.74,20.82,42.07,0,110.8,13.22,20.56,169.2
"2010-08-05 00:27:00",43555,6.306,216.2,2.495,0.428,19.36,107.9484,19.63,20.72,37.99,0,110.8,13.22,20.45,178.2
"2010-08-05 00:27:30",43556,5.704,218.9,2.809,0.214,19.37,107.9603,19.66,20.66,36.78,0,110.8,13.22,20.48,180.9
"2010-08-05 00:28:00",43557,5.279,221.5,3.026,0.197,19.53,107.9722,19.69,20.65,35.79,0,110.8,13.22,20.51,183.5
"2010-08-05 00:28:30",43558,5.118,223.2,0.672,0.103,19.67,108.0124,19.79,20.67,34.75,0,110.8,13.23,20.61,185.2
"2010-08-05 00:29:00",43559,5.192,223.1,0.835,0.091,19.63,108.0475,19.88,20.72,34.69,0,110.8,13.23,20.70,185.1
"2010-08-05 00:29:30",43560,5.16,220.3,1.564,0.142,19.65,108.0854,19.98,20.77,34.76,0,110.8,13.23,20.80,182.3
"2010-08-05 00:30:00",43561,5.171,219.9,1.925,0.192,19.65,108.1173,20.06,20.83,34.62,0,110.8,13.23,20.88,181.9
"2010-08-05 00:30:30",43562,5.402,221.2,2.979,0.155,19.63,108.1482,20.14,20.89,34.51,0,110.8,13.23,20.96,183.2
"2010-08-05 00:31:00",43563,5.429,224.4,1.316,0.085,19.38,108.1699,20.2,20.93,34.49,0,110.8,13.23,21.02,186.4
"2010-08-05 00:31:30",43564,5.721,224.6,2.383,0.377,19.39,108.1702,20.2,20.96,34.61,0,110.8,13.23,21.02,186.6
"2010-08-05 00:32:00",43565,5.929,221.8,1.825,0.2,19.33,108.1702,20.2,20.98,34.79,0,110.8,13.23,21.02,183.8
"2010-08-05 00:32:30",43566,6.028,219,1.485,0.178,19.25,108.1648,20.18,20.98,35.16,0,110.8,13.23,21.00,181.0
"2010-08-05 00:33:00",43567,6.143,217.9,2.428,0.19,19.13,108.1398,20.12,20.96,35.97,0,110.8,13.23,20.94,179.9
"2010-08-05 00:33:30",43568,6.238,220.1,2.325,0.207,19.2,108.1324,20.1,20.93,35.73,0,110.8,13.23,20.92,182.1
"2010-08-05 00:34:00",43569,6.658,218.7,1.183,0.197,19.05,108.1038,20.03,20.92,37.04,0,110.8,13.23,20.85,180.7
"2010-08-05 00:34:30",43570,6.789,220.9,1.443,0.216,19.16,108.0886,19.99,20.9,37.09,0,110.8,13.23,20.81,182.9
"2010-08-05 00:35:00",43571,6.959,221.4,1.473,0.267,19.26,108.0689,19.94,20.87,36.82,0,110.8,13.23,20.76,183.4
"2010-08-05 00:35:30",43572,7.495,217.2,4.546,0.191,18.97,108.0644,19.92,20.85,38.75,0,110.8,13.23,20.75,179.2
"2010-08-05 00:36:00",43573,7.285,215.1,2.348,0.168,18.95,108.0298,19.84,20.8,39.92,0,110.8,13.23,20.66,177.1
"2010-08-05 00:36:30",43574,7.478,217.6,2.014,0.264,19.12,108.0016,19.76,20.75,39.26,0,110.8,13.23,20.58,179.6
"2010-08-05 00:37:00",43575,7.797,216.1,1.408,0.151,19.15,107.9847,19.72,20.71,40.15,0,110.8,13.23,20.54,178.1
"2010-08-05 00:37:30",43576,7.453,216.3,0.94,0.138,19.25,107.9676,19.68,20.67,39.38,0,110.8,13.23,20.50,178.3
"2010-08-05 00:38:00",43577,6.832,213.9,1.837,0.115,19.36,107.9676,19.68,20.64,38.37,0,110.8,13.23,20.50,175.9
"2010-08-05 00:38:30",43578,6.973,212.4,0.802,0.12,19.44,107.9676,19.68,20.64,37.69,0,110.8,13.23,20.50,174.4
"2010-08-05 00:39:00",43579,6.552,212.6,0.697,0.178,19.5,107.9898,19.73,20.64,36.83,0,110.8,13.23,20.55,174.6
"2010-08-05 00:39:30",43580,6.199,214.4,1.016,0.144,19.57,108.0039,19.77,20.64,35.73,0,110.8,13.22,20.59,176.4
"2010-08-05 00:40:00",43581,6.086,214.7,0.575,0.048,19.68,108.0331,19.84,20.67,34.92,0,110.8,13.22,20.67,176.7
"2010-08-05 00:40:30",43582,5.984,217.7,1.482,0.076,19.94,108.0607,19.92,20.72,34.35,0,110.8,13.22,20.74,179.7
"2010-08-05 00:41:00",43583,5.992,219.2,0.812,0.1,20.09,108.1057,20.03,20.79,33.85,0,110.8,13.22,20.85,181.2
"2010-08-05 00:41:30",43584,6.035,221.4,1.283,0.064,19.91,108.1499,20.14,20.86,33.58,0,110.8,13.22,20.97,183.4
"2010-08-05 00:42:00",43585,6.046,224.1,0.893,0.078,19.85,108.1834,20.23,20.93,33.42,0,110.8,13.22,21.05,186.1
"2010-08-05 00:42:30",43586,5.857,223.6,0.896,0.087,19.87,108.2143,20.31,21.01,33.3,0,110.8,13.22,21.13,185.6
"2010-08-05 00:43:00",43587,5.897,224.9,1.461,0.134,19.84,108.2453,20.39,21.08,33.1,0,110.8,13.22,21.21,186.9
"2010-08-05 00:43:30",43588,5.81,225.6,1.241,0.148,19.85,108.2711,20.46,21.14,32.99,0,110.8,13.23,21.28,187.6
"2010-08-05 00:44:00",43589,5.714,227.3,0.693,0.161,19.73,108.2934,20.51,21.2,32.89,0,110.8,13.23,21.34,189.3
"2010-08-05 00:44:30",43590,5.883,226.9,0.733,0.13,19.73,108.3052,20.54,21.26,32.84,0,110.8,13.23,21.37,188.9
"2010-08-05 00:45:00",43591,5.865,222.1,1.742,0.183,19.64,108.3052,20.54,21.28,32.7,0,110.8,13.23,21.37,184.1
"2010-08-05 00:45:30",43592,6.184,219.3,1.375,0.126,19.63,108.3052,20.54,21.31,32.6,0,110.8,13.23,21.37,181.3
"2010-08-05 00:46:00",43593,6.791,218.3,1.131,0.415,19.37,108.3004,20.53,21.33,34.08,0,110.8,13.23,21.35,180.3
"2010-08-05 00:46:30",43594,7.658,221,1.145,0.15,19.07,108.2585,20.42,21.32,38.24,0,110.8,13.23,21.25,183.0
"2010-08-05 00:47:00",43595,8.15,213.6,2.452,0.274,18.61,108.198,20.27,21.26,40.6,0,110.8,13.23,21.09,175.6
"2010-08-05 00:47:30",43596,8.76,208.2,1.328,0.181,18.3,108.1322,20.1,21.15,41.97,0,110.8,13.23,20.92,170.2
"2010-08-05 00:48:00",43597,8.9,207.4,1.53,0.206,18.45,108.0621,19.92,21.03,42.42,0,110.8,13.23,20.74,169.4
"2010-08-05 00:48:30",43598,8.2,210.9,3.132,0.33,18.81,107.9935,19.74,20.88,42.43,0,110.8,13.23,20.56,172.9
"2010-08-05 00:49:00",43599,7.739,219.9,2.707,0.13,19.47,107.9606,19.66,20.79,40.55,0,110.8,13.23,20.48,181.9
"2010-08-05 00:49:30",43600,7.681,224,0.53,0.096,19.77,107.96,19.66,20.72,39.29,0,110.8,13.23,20.48,186.0
"2010-08-05 00:50:00",43601,7.341,222.9,1.311,0.165,19.71,107.9673,19.68,20.71,38.47,0,110.8,13.23,20.50,184.9
"2010-08-05 00:50:30",43602,6.916,220.3,1.292,0.116,19.63,107.9859,19.72,20.71,37.41,0,110.8,13.23,20.54,182.3
"2010-08-05 00:51:00",43603,6.677,219.4,0.773,0.13,19.72,108.0067,19.78,20.72,36.32,0,110.8,13.23,20.60,181.4
"2010-08-05 00:51:30",43604,6.4,219.9,0.539,0.053,19.69,108.0416,19.87,20.74,34.38,0,110.8,13.23,20.69,181.9
"2010-08-05 00:52:00",43605,6.408,220.2,0.028,0.064,19.66,108.0813,19.97,20.78,34.11,0,110.8,13.23,20.79,182.2
"2010-08-05 00:52:30",43606,6.394,217.6,0.934,0.052,20,108.1128,20.05,20.86,33.75,0,110.8,13.23,20.87,179.6
"2010-08-05 00:53:00",43607,6.387,218.7,1.043,0.055,19.77,108.1488,20.14,20.92,33.61,0,110.8,13.23,20.96,180.7
"2010-08-05 00:53:30",43608,6.456,218.5,0.883,0.078,19.51,108.1702,20.2,20.97,35.42,0,110.8,13.23,21.02,180.5
"2010-08-05 00:54:00",43609,6.6,214.7,1.346,0.2,19.53,108.1702,20.2,21.01,36.27,0,110.8,13.23,21.02,176.7
"2010-08-05 00:54:30",43610,7.158,211.1,2.937,0.434,19.32,108.1699,20.2,21.04,37.74,0,110.8,13.23,21.02,173.1
"2010-08-05 00:55:00",43611,8.36,205.3,1.444,0.184,18.71,108.135,20.11,21.01,40.88,0,110.8,13.23,20.93,167.3
"2010-08-05 00:55:30",43612,7.73,210.4,2.317,0.226,19.12,108.0835,19.97,20.94,40.51,0,110.8,13.23,20.80,172.4
"2010-08-05 00:56:00",43613,6.96,214.6,0.882,0.14,19.77,108.0663,19.93,20.89,37.4,0,110.8,13.23,20.75,176.6
"2010-08-05 00:56:30",43614,7.29,212.8,2.473,0.204,19.45,108.052,19.89,20.86,39.2,0,110.8,13.23,20.71,174.8
"2010-08-05 00:57:00",43615,6.948,214.6,0.96,0.135,19.99,108.0377,19.86,20.83,36.31,0,110.8,13.23,20.68,176.6
"2010-08-05 00:57:30",43616,6.711,215,0.02,0.078,19.88,108.0675,19.93,20.84,34.51,0,110.8,13.23,20.75,177.0
"2010-08-05 00:58:00",43617,6.775,214.9,0.32,0.039,19.99,108.0996,20.02,20.89,34.02,0,110.8,13.23,20.84,176.9
"2010-08-05 00:58:30",43618,6.805,214,0.587,0.046,20.11,108.1306,20.09,20.91,33.68,0,110.8,13.23,20.92,176.0
"2010-08-05 00:59:00",43619,6.931,212.6,1.008,0.033,20.14,108.1612,20.17,20.99,33.48,0,110.8,13.23,21.00,174.6
"2010-08-05 00:59:30",43620,6.878,211.1,0.02,0.034,20.05,108.1802,20.22,21.02,33.29,0,110.8,13.23,21.04,173.1
"2010-08-05 01:00:00",43621,6.995,208.8,0.854,0.035,19.82,108.2104,20.3,21.07,33.32,0,110.8,13.23,21.12,170.8
"2010-08-05 01:00:30",43622,6.95,207.9,0.49,0.038,19.69,108.2235,20.33,21.13,33.35,0,110.8,13.23,21.16,169.9
"2010-08-05 01:01:00",43623,7.044,205.7,0.658,0.09,19.99,108.2444,20.39,21.18,33.6,0,110.8,13.23,21.21,167.7
"2010-08-05 01:01:30",43624,7.287,203.8,1.339,0.2,19.73,108.252,20.41,21.22,33.88,0,110.8,13.24,21.23,165.8
"2010-08-05 01:02:00",43625,7.86,201.7,1.097,0.276,19.34,108.2465,20.39,21.24,35.89,0,110.8,13.24,21.22,163.7
"2010-08-05 01:02:30",43626,7.974,201.9,0.601,0.281,19.46,108.2334,20.36,21.23,35.63,0,110.8,13.24,21.18,163.9
"2010-08-05 01:03:00",43627,8.84,200.8,1.641,0.366,18.98,108.2051,20.29,21.21,38.33,0,110.8,13.24,21.11,162.8
"2010-08-05 01:03:30",43628,8.57,201.6,1.256,0.24,19.21,108.1697,20.2,21.14,37.92,0,110.8,13.24,21.02,163.6
"2010-08-05 01:04:00",43629,9,200.4,1.39,0.247,19.16,108.1346,20.11,21.1,38,0,110.8,13.24,20.93,162.4
"2010-08-05 01:04:30",43630,8.09,201.5,1.553,0.431,19.64,108.1117,20.05,21.05,36.41,0,110.8,13.24,20.87,163.5
"2010-08-05 01:05:00",43631,7.901,201.5,2.284,0.503,19.81,108.1096,20.04,21.02,35.43,0,110.8,13.24,20.86,163.5
"2010-08-05 01:05:30",43632,8.15,202,1.332,0.292,19.55,108.1117,20.05,21.02,36.82,0,110.8,13.24,20.87,164.0
"2010-08-05 01:06:00",43633,7.934,201.7,1.809,0.298,19.55,108.1121,20.05,21.01,36.55,0,110.8,13.24,20.87,163.7
"2010-08-05 01:06:30",43634,8.25,202.1,1.711,0.164,19.47,108.1121,20.05,21,36.88,0,110.8,13.24,20.87,164.1
"2010-08-05 01:07:00",43635,8.15,200.1,1.492,0.252,19.62,108.1075,20.04,21,36.05,0,110.8,13.24,20.86,162.1
"2010-08-05 01:07:30",43636,8.8,199.8,1.161,0.354,19.24,108.1115,20.05,20.99,37.88,0,110.8,13.24,20.87,161.8
"2010-08-05 01:08:00",43637,8.91,199.4,1.267,0.243,19.31,108.0939,20,20.96,37.95,0,110.8,13.24,20.82,161.4
"2010-08-05 01:08:30",43638,9.26,198.4,0.936,0.422,19.22,108.0798,19.96,20.93,38.47,0,110.8,13.24,20.79,160.4
"2010-08-05 01:09:00",43639,9.8,197.5,1.055,0.201,19.05,108.0526,19.89,20.88,38.83,0,110.8,13.24,20.72,159.5
"2010-08-05 01:09:30",43640,10.02,197.2,1.642,0.289,19.12,108.032,19.84,20.85,38.78,0,110.8,13.24,20.66,159.2
"2010-08-05 01:10:00",43641,10.48,196.4,1.534,0.344,19.09,108.0094,19.78,20.8,38.99,0,110.8,13.24,20.60,158.4
"2010-08-05 01:10:30",43642,10.44,197.1,2.011,0.489,19.12,107.98,19.71,20.74,39.26,0,110.8,13.24,20.53,159.1
"2010-08-05 01:11:00",43643,11.05,195.5,1.617,0.395,19.09,107.9587,19.65,20.69,39.34,0,110.8,13.24,20.47,157.5
"2010-08-05 01:11:30",43644,10.95,195.4,1.377,0.265,19.22,107.9393,19.6,20.66,39.28,0,110.8,13.24,20.42,157.4
"2010-08-05 01:12:00",43645,10.81,195.3,1.031,0.269,19.26,107.9122,19.53,20.59,39.27,0,110.8,13.24,20.35,157.3
"2010-08-05 01:12:30",43646,10.82,196.9,1.704,0.303,19.28,107.9136,19.54,20.55,39.32,0,110.8,13.23,20.36,158.9
"2010-08-05 01:13:00",43647,10.65,196.6,1.736,0.253,19.34,107.9023,19.51,20.52,39.26,0,110.8,13.23,20.33,158.6
"2010-08-05 01:13:30",43648,10.59,195.1,0.743,0.127,19.34,107.8873,19.47,20.5,39.18,0,110.8,13.23,20.29,157.1
"2010-08-05 01:14:00",43649,10.59,194.7,0.696,0.176,19.34,107.8829,19.46,20.49,39.15,0,110.8,13.23,20.28,156.7
"2010-08-05 01:14:30",43650,10.41,194.8,0.799,0.313,19.41,107.8836,19.46,20.46,39.11,0,110.8,13.23,20.28,156.8
"2010-08-05 01:15:00",43651,10.06,195.6,1.815,0.356,19.41,107.8876,19.47,20.44,39.2,0,110.8,13.23,20.29,157.6
"2010-08-05 01:15:30",43652,9.9,194.9,0.741,0.21,19.46,107.889,19.48,20.44,39.04,0,110.8,13.23,20.29,156.9
"2010-08-05 01:16:00",43653,9.55,195.6,1.815,0.216,19.55,107.9057,19.52,20.44,38.91,0,110.8,13.23,20.34,157.6
"2010-08-05 01:16:30",43654,9.84,195.4,1.274,0.36,19.51,107.9211,19.56,20.45,38.81,0,110.8,13.23,20.38,157.4
"2010-08-05 01:17:00",43655,9.97,194.7,0.864,0.181,19.49,107.9256,19.57,20.45,38.69,0,110.8,13.23,20.39,156.7
"2010-08-05 01:17:30",43656,10.43,195,0.767,0.291,19.45,107.9274,19.57,20.45,38.55,0,110.8,13.24,20.39,157.0
"2010-08-05 01:18:00",43657,10.22,194.9,0.94,0.142,19.49,107.9323,19.59,20.48,38.33,0,110.8,13.24,20.41,156.9
"2010-08-05 01:18:30",43658,10.24,195.1,1.01,0.118,19.49,107.9415,19.61,20.49,38.18,0,110.8,13.24,20.43,157.1
"2010-08-05 01:19:00",43659,10.2,194.9,0.896,0.238,19.54,107.9629,19.66,20.5,38.21,0,110.8,13.25,20.49,156.9
"2010-08-05 01:19:30",43660,10.11,195,0.744,0.164,19.5,107.9682,19.68,20.51,38.15,0,110.8,13.25,20.50,157.0
"2010-08-05 01:20:00",43661,10.03,196,0.564,0.097,19.65,107.9694,19.68,20.53,38.09,0,110.8,13.25,20.50,158.0
"2010-08-05 01:20:30",43662,10.11,195.6,0.829,0.131,19.59,107.969,19.68,20.54,37.97,0,110.8,13.25,20.50,157.6
"2010-08-05 01:21:00",43663,10.56,196.4,0.95,0.146,19.52,107.9792,19.71,20.56,37.76,0,110.8,13.25,20.53,158.4
"2010-08-05 01:21:30",43664,10.95,196.4,0.76,0.162,19.44,107.9868,19.73,20.57,37.76,0,110.8,13.25,20.55,158.4
"2010-08-05 01:22:00",43665,11.26,196.1,0.669,0.21,19.4,107.9894,19.73,20.58,38.05,0,110.8,13.25,20.55,158.1
"2010-08-05 01:22:30",43666,11.12,197.7,0.798,0.212,19.46,107.9835,19.72,20.57,38.01,0,110.8,13.25,20.54,159.7
"2010-08-05 01:23:00",43667,11.55,197.2,0.539,0.16,19.43,107.9795,19.71,20.58,38.09,0,110.8,13.25,20.53,159.2
"2010-08-05 01:23:30",43668,11.33,198.2,0.822,0.206,19.47,107.9711,19.69,20.58,37.98,0,110.8,13.25,20.51,160.2
"2010-08-05 01:24:00",43669,11.56,197.8,0.95,0.133,19.42,107.9702,19.68,20.58,37.9,0,110.8,13.25,20.50,159.8
"2010-08-05 01:24:30",43670,11.65,197.7,0.542,0.07,19.38,107.9703,19.68,20.58,37.85,0,110.8,13.25,20.50,159.7
"2010-08-05 01:25:00",43671,11.74,197.4,0.53,0.103,19.37,107.9703,19.68,20.57,37.71,0,110.8,13.25,20.50,159.4
"2010-08-05 01:25:30",43672,11.68,198,0.201,0.051,19.44,107.97,19.68,20.57,37.68,0,110.8,13.25,20.50,160.0
"2010-08-05 01:26:00",43673,11.75,197.4,0.548,0.073,19.42,107.9703,19.68,20.56,37.88,0,110.8,13.25,20.50,159.4
"2010-08-05 01:26:30",43674,11.61,198,0.048,0.072,19.46,107.9703,19.68,20.56,37.88,0,110.8,13.25,20.50,160.0
"2010-08-05 01:27:00",43675,11.38,197.6,0.513,0.076,19.55,107.9703,19.68,20.56,37.88,0,110.8,13.25,20.50,159.6
"2010-08-05 01:27:30",43676,11.36,198,0.206,0.074,19.57,107.9703,19.68,20.56,37.86,0,110.8,13.25,20.50,160.0
"2010-08-05 01:28:00",43677,11.39,198.2,0.425,0.071,19.55,107.9703,19.68,20.57,37.72,0,110.8,13.25,20.50,160.2
"2010-08-05 01:28:30",43678,11.29,198.7,0.497,0.119,19.59,107.9703,19.68,20.58,37.9,0,110.8,13.25,20.50,160.7
"2010-08-05 01:29:00",43679,11.21,199.1,0.542,0.108,19.6,107.9706,19.68,20.58,38.03,0,110.8,13.25,20.50,161.1
"2010-08-05 01:29:30",43680,10.92,199.9,0.593,0.147,19.55,107.977,19.7,20.58,38,0,110.8,13.24,20.52,161.9
"2010-08-05 01:30:00",43681,10.74,201,0.564,0.075,19.76,107.9948,19.75,20.59,38.18,0,110.8,13.24,20.57,163.0
"2010-08-05 01:30:30",43682,10.5,201.9,0.464,0.096,19.7,108.004,19.77,20.62,38.1,0,110.8,13.24,20.59,163.9
"2010-08-05 01:31:00",43683,10.36,201.7,0.297,0.093,19.6,108.0052,19.77,20.64,38.06,0,110.8,13.24,20.59,163.7
"2010-08-05 01:31:30",43684,10.19,203.2,0.635,0.072,19.68,108.026,19.83,20.64,37.95,0,110.8,13.24,20.65,165.2
"2010-08-05 01:32:00",43685,10.08,204.4,0.511,0.123,19.63,108.0375,19.86,20.68,37.8,0,110.8,13.24,20.68,166.4
"2010-08-05 01:32:30",43686,10.06,205,0.728,0.062,19.69,108.0381,19.86,20.72,38.02,0,110.8,13.24,20.68,167.0
"2010-08-05 01:33:00",43687,9.87,205.9,0.445,0.116,19.63,108.0505,19.89,20.72,38.19,0,110.8,13.24,20.71,167.9
"2010-08-05 01:33:30",43688,9.69,206.5,0.648,0.051,19.49,108.0685,19.94,20.74,37.88,0,110.8,13.24,20.76,168.5
"2010-08-05 01:34:00",43689,9.65,206.9,0.464,0.062,19.62,108.0716,19.94,20.78,37.73,0,110.7,13.24,20.76,168.9
"2010-08-05 01:34:30",43690,9.6,208.3,0.856,0.06,19.83,108.0716,19.94,20.78,37.27,0,110.8,13.24,20.76,170.3
"2010-08-05 01:35:00",43691,9.53,209.3,0.883,0.098,19.72,108.0859,19.98,20.82,37,0,110.7,13.25,20.80,171.3
"2010-08-05 01:35:30",43692,9.32,210,0.714,0.059,19.52,108.1048,20.03,20.82,37.13,0,110.8,13.25,20.85,172.0
"2010-08-05 01:36:00",43693,9.06,212.1,0.735,0.142,19.8,108.1054,20.03,20.86,36.72,0,110.8,13.25,20.85,174.1
"2010-08-05 01:36:30",43694,8.73,213.9,0.836,0.049,19.79,108.1161,20.06,20.88,36.07,0,110.8,13.25,20.88,175.9
"2010-08-05 01:37:00",43695,8.61,216.2,0.661,0.084,19.86,108.138,20.11,20.91,35.7,0,110.8,13.25,20.94,178.2
"2010-08-05 01:37:30",43696,8.51,217,0.256,0.058,19.84,108.1448,20.13,20.95,35.57,0,110.8,13.25,20.95,179.0
"2010-08-05 01:38:00",43697,8.44,217.2,0.479,0.094,19.77,108.1695,20.19,20.98,35.45,0,110.8,13.25,21.02,179.2
"2010-08-05 01:38:30",43698,8.39,217.8,0.676,0.053,19.81,108.1729,20.2,21.01,35.36,0,110.8,13.25,21.03,179.8
"2010-08-05 01:39:00",43699,8.4,217.9,0.513,0.063,19.78,108.1901,20.25,21.04,35.61,0,110.8,13.25,21.07,179.9
"2010-08-05 01:39:30",43700,8.37,219.2,0.901,0.111,19.79,108.1999,20.27,21.07,35.66,0,110.7,13.25,21.10,181.2
"2010-08-05 01:40:00",43701,8.33,220.3,0.68,0.085,19.72,108.2067,20.29,21.1,35.47,0,110.8,13.25,21.11,182.3
"2010-08-05 01:40:30",43702,8.44,221.1,0.75,0.106,19.74,108.2067,20.29,21.11,35.24,0,110.7,13.25,21.11,183.1
"2010-08-05 01:41:00",43703,8.56,221.3,0.618,0.077,19.67,108.2067,20.29,21.11,35.13,0,110.7,13.25,21.11,183.3
"2010-08-05 01:41:30",43704,8.67,221.1,0.52,0.079,19.67,108.2067,20.29,21.13,35.2,0,110.7,13.25,21.11,183.1
"2010-08-05 01:42:00",43705,8.69,222.1,0.634,0.066,19.67,108.2067,20.29,21.13,35.09,0,110.8,13.25,21.11,184.1
"2010-08-05 01:42:30",43706,8.71,221.7,0.704,0.072,19.6,108.2067,20.29,21.15,35.05,0,110.8,13.25,21.11,183.7
"2010-08-05 01:43:00",43707,8.93,220.7,0.596,0.141,19.55,108.2044,20.28,21.13,35.39,0,110.8,13.25,21.11,182.7
"2010-08-05 01:43:30",43708,9.22,220.5,0.496,0.11,19.55,108.1875,20.24,21.13,35.59,0,110.8,13.25,21.06,182.5
"2010-08-05 01:44:00",43709,9.48,221.5,0.919,0.233,19.51,108.1732,20.2,21.12,35.95,0,110.7,13.25,21.03,183.5
"2010-08-05 01:44:30",43710,9.66,221.9,0.744,0.167,19.56,108.1729,20.2,21.11,36.14,0,110.8,13.25,21.03,183.9
"2010-08-05 01:45:00",43711,9.87,222.5,0.689,0.199,19.54,108.1664,20.19,21.1,36.27,0,110.8,13.25,21.01,184.5
"2010-08-05 01:45:30",43712,10.13,222.7,0.527,0.149,19.54,108.1428,20.13,21.09,36.38,0,110.8,13.25,20.95,184.7
"2010-08-05 01:46:00",43713,10.38,221.8,0.675,0.138,19.57,108.1391,20.12,21.08,36.44,0,110.8,13.25,20.94,183.8
"2010-08-05 01:46:30",43714,10.42,222.5,0.546,0.058,19.61,108.1391,20.12,21.06,36.72,0,110.7,13.25,20.94,184.5
"2010-08-05 01:47:00",43715,10.47,223,0.437,0.149,19.61,108.1391,20.12,21.05,36.98,0,110.8,13.25,20.94,185.0
"2010-08-05 01:47:30",43716,10.85,223,1.042,0.137,19.61,108.1304,20.09,21.04,36.95,0,110.8,13.25,20.92,185.0
"2010-08-05 01:48:00",43717,10.87,222.2,0.836,0.108,19.64,108.1245,20.08,21.01,37.92,0,110.8,13.25,20.90,184.2
"2010-08-05 01:48:30",43718,10.96,221.9,0.817,0.115,19.68,108.1186,20.06,21.02,39.48,0,110.8,13.24,20.89,183.9